| time (UTC) | temp C | wind direction | speed KPH | gust KPH | rain 1hr cm | rain 24hr cm | rain mn cm | humidity % | barometer mb |
| 20260508231011 | 16 | 22 | 27.4 | 27.4 | 0.00 | 0.00 | 0.00 | 45 | 88.8 |
| 20260508230011 | 16 | 22 | 30.6 | 30.6 | 0.00 | 0.00 | 0.00 | 44 | 88.8 |
| 20260508225012 | 17 | 22 | 14.5 | 14.5 | 0.00 | 0.00 | 0.00 | 41 | 88.8 |
| 20260508224011 | 16 | 22 | 19.3 | 19.3 | 0.00 | 0.00 | 0.00 | 42 | 88.8 |
| 20260508223011 | 17 | 0 | 25.7 | 25.7 | 0.00 | 0.00 | 0.00 | 42 | 88.8 |
| 20260508222012 | 16 | 22 | 29.0 | 29.0 | 0.00 | 0.00 | 0.00 | 43 | 88.8 |
| 20260508221011 | 16 | 0 | 20.9 | 20.9 | 0.00 | 0.00 | 0.00 | 44 | 88.8 |
| 20260508220011 | 16 | 22 | 35.4 | 35.4 | 0.00 | 0.00 | 0.00 | 44 | 88.8 |
| 20260508215012 | 16 | 45 | 27.4 | 27.4 | 0.00 | 0.00 | 0.00 | 45 | 88.8 |
| 20260508214011 | 17 | 45 | 32.2 | 32.2 | 0.00 | 0.00 | 0.00 | 45 | 88.8 |
| 20260508212013 | 17 | 0 | 33.8 | 33.8 | 0.00 | 0.00 | 0.00 | 44 | 88.8 |
| 20260508211011 | 17 | 45 | 32.2 | 32.2 | 0.00 | 0.00 | 0.00 | 43 | 88.8 |
| 20260508210011 | 17 | 22 | 37.0 | 37.0 | 0.00 | 0.00 | 0.00 | 43 | 88.8 |
| 20260508205011 | 17 | 22 | 30.6 | 30.6 | 0.00 | 0.00 | 0.00 | 46 | 88.8 |
| 20260508204012 | 17 | 22 | 33.8 | 33.8 | 0.00 | 0.00 | 0.00 | 46 | 88.8 |
| 20260508203012 | 18 | 45 | 32.2 | 32.2 | 0.00 | 0.00 | 0.00 | 43 | 88.8 |
| 20260508202013 | 18 | 22 | 19.3 | 19.3 | 0.00 | 0.00 | 0.00 | 43 | 88.8 |
| 20260508201011 | 17 | 0 | 25.7 | 25.7 | 0.00 | 0.00 | 0.00 | 44 | 88.8 |
| 20260508200011 | 17 | 22 | 35.4 | 35.4 | 0.00 | 0.00 | 0.00 | 42 | 88.8 |
| 20260508195012 | 17 | 22 | 20.9 | 20.9 | 0.00 | 0.00 | 0.00 | 44 | 88.8 |
| 20260508194011 | 17 | 22 | 30.6 | 30.6 | 0.00 | 0.00 | 0.00 | 44 | 88.8 |
| 20260508193012 | 17 | 22 | 30.6 | 30.6 | 0.00 | 0.00 | 0.00 | 43 | 88.8 |
| 20260508192012 | 17 | 22 | 27.4 | 27.4 | 0.00 | 0.00 | 0.00 | 42 | 88.8 |
| 20260508191012 | 17 | 22 | 29.0 | 29.0 | 0.00 | 0.00 | 0.00 | 41 | 88.8 |
| 20260508185011 | 18 | 338 | 27.4 | 27.4 | 0.00 | 0.00 | 0.00 | 39 | 88.8 |
| 20260508184012 | 19 | 315 | 27.4 | 27.4 | 0.00 | 0.00 | 0.00 | 37 | 88.8 |
| 20260508183012 | 20 | 270 | 22.5 | 22.5 | 0.00 | 0.00 | 0.00 | 37 | 88.8 |
| 20260508182012 | 20 | 315 | 29.0 | 29.0 | 0.00 | 0.00 | 0.00 | 37 | 88.8 |
| 20260508181011 | 20 | 338 | 22.5 | 22.5 | 0.00 | 0.00 | 0.00 | 36 | 88.8 |
| 20260508180011 | 20 | 270 | 16.1 | 16.1 | 0.00 | 0.00 | 0.00 | 36 | 88.8 |
| 20260508175011 | 20 | 270 | 24.1 | 24.1 | 0.00 | 0.00 | 0.00 | 36 | 88.8 |
| 20260508174012 | 20 | 292 | 29.0 | 29.0 | 0.00 | 0.00 | 0.00 | 36 | 88.8 |
| 20260508173011 | 20 | 22 | 25.7 | 25.7 | 0.00 | 0.00 | 0.00 | 35 | 88.8 |
| 20260508172011 | 20 | 22 | 22.5 | 22.5 | 0.00 | 0.00 | 0.00 | 36 | 88.8 |
| 20260508171012 | 20 | 292 | 17.7 | 17.7 | 0.00 | 0.00 | 0.00 | 36 | 88.8 |
| 20260508170012 | 20 | 315 | 20.9 | 20.9 | 0.00 | 0.00 | 0.00 | 36 | 88.8 |
| 20260508165011 | 20 | 270 | 16.1 | 16.1 | 0.00 | 0.00 | 0.00 | 38 | 88.8 |
| 20260508162011 | 18 | 292 | 19.3 | 19.3 | 0.00 | 0.00 | 0.00 | 39 | 88.8 |
| 20260508161012 | 18 | 248 | 16.1 | 16.1 | 0.00 | 0.00 | 0.00 | 40 | 88.8 |
| 20260508160012 | 17 | 292 | 24.1 | 24.1 | 0.00 | 0.00 | 0.00 | 42 | 88.8 |
| 20260508155012 | 17 | 270 | 20.9 | 20.9 | 0.00 | 0.00 | 0.00 | 42 | 88.8 |
| 20260508154012 | 16 | 292 | 24.1 | 24.1 | 0.00 | 0.00 | 0.00 | 43 | 88.8 |
| 20260508153011 | 16 | 270 | 25.7 | 25.7 | 0.00 | 0.00 | 0.00 | 44 | 88.8 |
| 20260508152012 | 16 | 270 | 25.7 | 25.7 | 0.00 | 0.00 | 0.00 | 44 | 88.8 |
| 20260508151012 | 16 | 270 | 32.2 | 32.2 | 0.00 | 0.00 | 0.00 | 45 | 88.8 |
| 20260508150012 | 16 | 270 | 32.2 | 32.2 | 0.00 | 0.00 | 0.00 | 47 | 88.8 |
| 20260508145011 | 16 | 292 | 30.6 | 30.6 | 0.00 | 0.00 | 0.00 | 47 | 88.8 |
| 20260508144011 | 16 | 270 | 30.6 | 30.6 | 0.00 | 0.00 | 0.00 | 46 | 88.8 |
| 20260508143012 | 16 | 248 | 35.4 | 35.4 | 0.00 | 0.00 | 0.00 | 46 | 88.8 |
| 20260508141012 | 15 | 270 | 27.4 | 27.4 | 0.00 | 0.00 | 0.00 | 50 | 88.8 |
| 20260508140012 | 14 | 270 | 20.9 | 20.9 | 0.00 | 0.00 | 0.00 | 52 | 88.8 |
| 20260508135012 | 13 | 270 | 22.5 | 22.5 | 0.00 | 0.00 | 0.00 | 56 | 88.8 |
| 20260508134011 | 12 | 270 | 25.7 | 25.7 | 0.00 | 0.00 | 0.00 | 58 | 88.8 |
| 20260508133013 | 12 | 270 | 25.7 | 25.7 | 0.00 | 0.00 | 0.00 | 59 | 88.8 |
| 20260508132012 | 11 | 270 | 25.7 | 25.7 | 0.00 | 0.00 | 0.00 | 60 | 88.8 |
| 20260508131012 | 10 | 270 | 20.9 | 20.9 | 0.00 | 0.00 | 0.00 | 60 | 88.8 |
| 20260508130011 | 9 | 270 | 20.9 | 20.9 | 0.00 | 0.00 | 0.00 | 61 | 88.8 |
| 20260508125011 | 8 | 270 | 27.4 | 27.4 | 0.00 | 0.00 | 0.00 | 61 | 88.8 |
| 20260508124011 | 7 | 225 | 22.5 | 22.5 | 0.00 | 0.00 | 0.00 | 64 | 88.8 |
| 20260508123011 | 6 | 248 | 17.7 | 17.7 | 0.00 | 0.00 | 0.00 | 67 | 88.8 |
| 20260508122011 | 6 | 270 | 16.1 | 16.1 | 0.00 | 0.00 | 0.00 | 69 | 88.8 |
| 20260508121012 | 6 | 270 | 12.9 | 12.9 | 0.00 | 0.00 | 0.00 | 72 | 88.8 |
| 20260508115012 | 5 | 248 | 14.5 | 14.5 | 0.00 | 0.00 | 0.00 | 75 | 88.8 |
| 20260508114011 | 5 | 248 | 14.5 | 14.5 | 0.00 | 0.00 | 0.00 | 75 | 88.8 |
| 20260508112012 | 4 | 202 | 8.0 | 8.0 | 0.00 | 0.00 | 0.00 | 76 | 88.8 |
| 20260508111012 | 3 | 248 | 8.0 | 8.0 | 0.00 | 0.00 | 0.00 | 76 | 88.8 |
| 20260508110012 | 4 | 225 | 9.7 | 9.7 | 0.00 | 0.00 | 0.00 | 76 | 88.8 |
| 20260508105011 | 4 | 248 | 9.7 | 9.7 | 0.00 | 0.00 | 0.00 | 76 | 88.8 |
| 20260508104011 | 4 | 248 | 8.0 | 8.0 | 0.00 | 0.00 | 0.00 | 75 | 88.8 |
| 20260508103012 | 5 | 248 | 8.0 | 8.0 | 0.00 | 0.00 | 0.00 | 75 | 88.8 |
| 20260508102012 | 5 | 248 | 8.0 | 8.0 | 0.00 | 0.00 | 0.00 | 75 | 88.8 |
| 20260508101011 | 4 | 270 | 9.7 | 9.7 | 0.00 | 0.00 | 0.00 | 75 | 88.8 |
| 20260508100011 | 5 | 225 | 9.7 | 9.7 | 0.00 | 0.00 | 0.00 | 75 | 88.8 |
| 20260508095011 | 5 | 225 | 11.3 | 11.3 | 0.00 | 0.00 | 0.00 | 75 | 88.8 |
| 20260508094012 | 5 | 270 | 8.0 | 8.0 | 0.00 | 0.00 | 0.00 | 75 | 88.8 |
| 20260508093011 | 4 | 225 | 11.3 | 11.3 | 0.00 | 0.00 | 0.00 | 75 | 88.8 |
| 20260508092012 | 4 | 270 | 11.3 | 11.3 | 0.00 | 0.00 | 0.00 | 76 | 88.8 |
| 20260508091012 | 4 | 248 | 8.0 | 8.0 | 0.00 | 0.00 | 0.00 | 76 | 88.8 |
| 20260508085012 | 3 | 270 | 8.0 | 8.0 | 0.00 | 0.00 | 0.00 | 76 | 88.8 |
| 20260508084012 | 3 | 248 | 9.7 | 9.7 | 0.00 | 0.00 | 0.00 | 79 | 88.8 |
| 20260508083011 | 3 | 225 | 9.7 | 9.7 | 0.00 | 0.00 | 0.00 | 79 | 88.8 |
| 20260508082012 | 3 | 248 | 8.0 | 8.0 | 0.00 | 0.00 | 0.00 | 79 | 88.8 |
| 20260508081013 | 3 | 225 | 6.4 | 6.4 | 0.00 | 0.00 | 0.00 | 80 | 88.8 |
| 20260508080011 | 3 | 202 | 8.0 | 8.0 | 0.00 | 0.00 | 0.00 | 79 | 88.8 |
| 20260508075011 | 3 | 248 | 8.0 | 8.0 | 0.00 | 0.00 | 0.00 | 78 | 88.8 |
| 20260508074012 | 3 | 225 | 8.0 | 8.0 | 0.00 | 0.00 | 0.00 | 79 | 88.8 |
| 20260508073011 | 2 | 248 | 6.4 | 6.4 | 0.00 | 0.00 | 0.00 | 80 | 88.8 |
| 20260508072011 | 1 | 248 | 6.4 | 6.4 | 0.00 | 0.00 | 0.00 | 83 | 88.8 |
| 20260508070012 | 1 | 112 | 0.0 | 0.0 | 0.00 | 0.00 | 0.00 | 82 | 88.8 |
| 20260508065012 | 1 | 270 | 0.0 | 0.0 | 0.00 | 0.00 | 0.00 | 79 | 88.8 |
| 20260508064012 | 2 | 225 | 0.0 | 0.0 | 0.00 | 0.00 | 0.00 | 77 | 88.8 |
| 20260508063011 | 2 | 202 | 4.8 | 4.8 | 0.00 | 0.00 | 0.00 | 77 | 88.8 |
| 20260508062011 | 2 | 225 | 0.0 | 0.0 | 0.00 | 0.00 | 0.00 | 75 | 88.8 |
| 20260508061012 | 2 | 225 | 6.4 | 6.4 | 0.00 | 0.00 | 0.00 | 74 | 88.8 |
| 20260508060012 | 2 | 202 | 6.4 | 6.4 | 0.00 | 0.00 | 0.00 | 74 | 88.8 |
| 20260508055013 | 1 | 225 | 0.0 | 0.0 | 0.00 | 0.00 | 0.00 | 76 | 88.8 |
| 20260508054012 | 1 | 225 | 0.0 | 0.0 | 0.00 | 0.00 | 0.00 | 78 | 88.8 |
| 20260508053011 | 2 | 180 | 0.0 | 0.0 | 0.00 | 0.00 | 0.00 | 77 | 88.8 |
| 20260508052012 | 2 | 158 | 0.0 | 0.0 | 0.00 | 0.00 | 0.00 | 75 | 88.8 |
| 20260508051011 | 2 | 180 | 0.0 | 0.0 | 0.00 | 0.00 | 0.00 | 76 | 88.8 |
| 20260508050012 | 3 | 315 | 0.0 | 0.0 | 0.00 | 0.00 | 0.00 | 74 | 88.8 |
| 20260508045012 | 4 | 22 | 0.0 | 0.0 | 0.00 | 0.00 | 0.00 | 72 | 88.8 |
| 20260508044012 | 6 | 22 | 0.0 | 0.0 | 0.00 | 0.00 | 0.00 | 71 | 88.8 |
| 20260508043012 | 6 | 22 | 4.8 | 4.8 | 0.00 | 0.00 | 0.00 | 70 | 88.8 |
| 20260508042012 | 7 | 22 | 4.8 | 4.8 | 0.00 | 0.00 | 0.00 | 70 | 88.8 |
| 20260508041011 | 7 | 22 | 4.8 | 4.8 | 0.00 | 0.00 | 0.00 | 69 | 88.8 |
| 20260508040012 | 8 | 45 | 6.4 | 6.4 | 0.00 | 0.00 | 0.00 | 66 | 88.8 |
| 20260508035011 | 8 | 45 | 6.4 | 6.4 | 0.00 | 0.00 | 0.00 | 66 | 88.8 |
| 20260508034011 | 8 | 112 | 3.2 | 3.2 | 0.00 | 0.00 | 0.00 | 67 | 88.8 |
| 20260508033012 | 8 | 68 | 4.8 | 4.8 | 0.00 | 0.00 | 0.00 | 64 | 88.8 |
| 20260508032011 | 9 | 90 | 6.4 | 6.4 | 0.00 | 0.00 | 0.00 | 64 | 88.8 |
| 20260508031016 | 9 | 68 | 8.0 | 8.0 | 0.00 | 0.00 | 0.00 | 64 | 88.8 |
| 20260508030011 | 10 | 45 | 8.0 | 8.0 | 0.00 | 0.00 | 0.00 | 63 | 88.8 |
| 20260508025012 | 11 | 45 | 11.3 | 11.3 | 0.00 | 0.00 | 0.00 | 60 | 88.8 |
| 20260508023012 | 12 | 68 | 16.1 | 16.1 | 0.00 | 0.00 | 0.00 | 53 | 88.8 |
| 20260508022012 | 12 | 90 | 9.7 | 9.7 | 0.00 | 0.00 | 0.00 | 51 | 88.8 |
| 20260508021011 | 13 | 90 | 8.0 | 8.0 | 0.00 | 0.00 | 0.00 | 49 | 88.8 |
| 20260508020011 | 14 | 68 | 9.7 | 9.7 | 0.00 | 0.00 | 0.00 | 47 | 88.8 |
| 20260508015011 | 15 | 90 | 11.3 | 11.3 | 0.00 | 0.00 | 0.00 | 46 | 88.8 |
| 20260508014013 | 15 | 90 | 14.5 | 14.5 | 0.00 | 0.00 | 0.00 | 45 | 88.8 |
| 20260508013011 | 16 | 68 | 19.3 | 19.3 | 0.00 | 0.00 | 0.00 | 44 | 88.8 |
| 20260508012012 | 16 | 68 | 22.5 | 22.5 | 0.00 | 0.00 | 0.00 | 43 | 88.8 |
| 20260508011012 | 17 | 68 | 20.9 | 20.9 | 0.00 | 0.00 | 0.00 | 42 | 88.8 |
| 20260508010011 | 17 | 112 | 14.5 | 14.5 | 0.00 | 0.00 | 0.00 | 42 | 88.8 |
| 20260508005011 | 17 | 90 | 16.1 | 16.1 | 0.00 | 0.00 | 0.00 | 41 | 88.8 |
| 20260508004012 | 18 | 112 | 17.7 | 17.7 | 0.00 | 0.00 | 0.00 | 42 | 88.8 |
| 20260508003013 | 18 | 90 | 16.1 | 16.1 | 0.00 | 0.00 | 0.00 | 41 | 88.8 |
| 20260508002012 | 18 | 90 | 16.1 | 16.1 | 0.00 | 0.00 | 0.00 | 41 | 88.8 |
| 20260508001013 | 17 | 90 | 16.1 | 16.1 | 0.00 | 0.00 | 0.00 | 41 | 88.8 |
| 20260508000012 | 17 | 90 | 20.9 | 20.9 | 0.00 | 0.00 | 0.00 | 40 | 88.8 |
| 20260507235011 | 17 | 112 | 14.5 | 14.5 | 0.00 | 0.00 | 0.00 | 41 | 88.8 |
| 20260507234012 | 17 | 90 | 17.7 | 17.7 | 0.00 | 0.00 | 0.00 | 41 | 88.8 |
| 20260507233011 | 17 | 112 | 22.5 | 22.5 | 0.00 | 0.00 | 0.00 | 40 | 88.8 |
| 20260507232011 | 17 | 90 | 19.3 | 19.3 | 0.00 | 0.00 | 0.00 | 40 | 88.8 |